Location: Unspecified
(43.4680°N, 87.1740°E)
Time: 05:14:47
(UTC+00:00)

SL-16 R/B - Pass Details

Date: 17 April 2021
Orbit: 985 x 1007 km, 99.5° (Epoch: 16 May)

Event Time Altitude Azimuth Distance (km) Brightness Sun altitude
Exits shadow 20:15:44 64° 285° (WNW) 1,108 2.6 -28.7°
Drops below altitude 10° 20:21:28 10° 340° (NNW) 2,790 5.2 -28.1°
Sets 20:24:00 0° 343° (NNW) 3,746 6.0 -27.8°
